Time,TemperatureF,DewpointF,PressureIn,WindDirection,WindDirectionDegrees,WindSpeedMPH,WindSpeedGustMPH,Humidity,HourlyPrecipIn,Conditions,Clouds,dailyrainin,SoftwareType,DateUTC
2013-02-13 00:00:00,31.3,24.6,29.92,WNW,295,3.0,3.0,76,0.00,,,0.00,Wunderground v.1.15,2013-02-13 05:00:00,
2013-02-13 00:05:00,31.3,24.9,29.92,NW,319,3.0,5.0,77,0.00,,,0.00,Wunderground v.1.15,2013-02-13 05:05:00,
2013-02-13 00:15:00,31.1,25.0,29.92,WNW,290,2.0,3.0,78,0.00,,,0.00,Wunderground v.1.15,2013-02-13 05:15:00,
2013-02-13 00:20:00,31.1,25.0,29.92,West,264,2.0,2.0,78,0.00,,,0.00,Wunderground v.1.15,2013-02-13 05:20:00,
2013-02-13 00:30:00,31.0,25.2,29.92,South,175,1.0,1.0,79,0.00,,,0.00,Wunderground v.1.15,2013-02-13 05:30:00,
2013-02-13 00:35:00,30.9,25.5,29.92,West,281,1.0,1.0,80,0.00,,,0.00,Wunderground v.1.15,2013-02-13 05:35:00,
2013-02-13 00:45:00,30.7,25.6,29.92,SW,222,0.0,4.0,81,0.00,,,0.00,Wunderground v.1.15,2013-02-13 05:45:00,
2013-02-13 00:55:00,30.6,25.8,29.91,West,274,1.0,2.0,82,0.00,,,0.00,Wunderground v.1.15,2013-02-13 05:55:00,
2013-02-13 01:00:00,30.6,25.8,29.91,SSW,205,1.0,1.0,82,0.00,,,0.00,Wunderground v.1.15,2013-02-13 06:00:00,
2013-02-13 01:05:00,30.5,25.7,29.91,South,190,1.0,1.0,82,0.00,,,0.00,Wunderground v.1.15,2013-02-13 06:05:00,
2013-02-13 01:10:00,30.5,26.0,29.91,SW,230,1.0,1.0,83,0.00,,,0.00,Wunderground v.1.15,2013-02-13 06:10:00,
2013-02-13 01:20:00,30.4,25.9,29.91,WSW,250,1.0,2.0,83,0.00,,,0.00,Wunderground v.1.15,2013-02-13 06:20:00,
2013-02-13 01:25:00,30.3,25.8,29.91,SW,221,1.0,2.0,83,0.00,,,0.00,Wunderground v.1.15,2013-02-13 06:25:00,
2013-02-13 01:30:00,30.3,26.0,29.91,SW,233,1.0,2.0,84,0.00,,,0.00,Wunderground v.1.15,2013-02-13 06:30:00,
2013-02-13 01:40:00,30.2,25.9,29.91,SW,229,0.0,0.0,84,0.00,,,0.00,Wunderground v.1.15,2013-02-13 06:40:00,
2013-02-13 01:45:00,30.2,25.9,29.91,WSW,237,0.0,1.0,84,0.00,,,0.00,Wunderground v.1.15,2013-02-13 06:45:00,
2013-02-13 01:55:00,30.2,25.9,29.91,SW,224,1.0,2.0,84,0.00,,,0.00,Wunderground v.1.15,2013-02-13 06:55:00,
2013-02-13 02:05:00,30.3,25.5,29.91,West,281,2.0,5.0,82,0.00,,,0.00,Wunderground v.1.15,2013-02-13 07:05:00,
2013-02-13 02:10:00,30.2,25.1,29.91,South,191,2.0,2.0,81,0.00,,,0.00,Wunderground v.1.15,2013-02-13 07:10:00,
2013-02-13 02:20:00,30.1,25.0,29.91,WSW,238,2.0,2.0,81,0.00,,,0.00,Wunderground v.1.15,2013-02-13 07:20:00,
2013-02-13 02:30:00,30.1,25.0,29.91,NW,326,1.0,2.0,81,0.00,,,0.00,Wunderground v.1.15,2013-02-13 07:30:00,
2013-02-13 02:40:00,30.1,25.0,29.90,WNW,296,1.0,2.0,81,0.00,,,0.00,Wunderground v.1.15,2013-02-13 07:40:00,
2013-02-13 02:45:00,30.0,24.9,29.90,West,275,1.0,2.0,81,0.00,,,0.00,Wunderground v.1.15,2013-02-13 07:45:00,
2013-02-13 02:55:00,30.0,24.9,29.90,SE,136,0.0,1.0,81,0.00,,,0.00,Wunderground v.1.15,2013-02-13 07:55:00,
2013-02-13 03:00:00,29.9,25.1,29.90,West,265,0.0,2.0,82,0.00,,,0.00,Wunderground v.1.15,2013-02-13 08:00:00,
2013-02-13 03:10:00,29.8,25.0,29.90,WNW,284,1.0,3.0,82,0.00,,,0.00,Wunderground v.1.15,2013-02-13 08:10:00,
2013-02-13 03:20:00,29.8,24.7,29.90,SSW,196,2.0,2.0,81,0.00,,,0.00,Wunderground v.1.15,2013-02-13 08:20:00,
2013-02-13 03:30:00,29.8,25.0,29.89,West,275,2.0,2.0,82,0.00,,,0.00,Wunderground v.1.15,2013-02-13 08:30:00,
2013-02-13 03:35:00,29.8,25.0,29.89,WNW,290,1.0,2.0,82,0.00,,,0.00,Wunderground v.1.15,2013-02-13 08:35:00,
2013-02-13 03:45:00,29.8,24.7,29.89,West,259,1.0,1.0,81,0.00,,,0.00,Wunderground v.1.15,2013-02-13 08:45:00,
2013-02-13 03:55:00,29.8,24.7,29.89,West,278,1.0,1.0,81,0.00,,,0.00,Wunderground v.1.15,2013-02-13 08:55:00,
2013-02-13 04:05:00,29.8,24.7,29.89,WNW,288,1.0,1.0,81,0.00,,,0.00,Wunderground v.1.15,2013-02-13 09:05:00,
2013-02-13 04:10:00,29.7,24.9,29.88,West,275,0.0,0.0,82,0.00,,,0.00,Wunderground v.1.15,2013-02-13 09:10:00,
2013-02-13 04:20:00,29.6,24.8,29.88,West,273,0.0,0.0,82,0.00,,,0.00,Wunderground v.1.15,2013-02-13 09:20:00,
2013-02-13 04:30:00,29.4,24.6,29.88,West,273,0.0,0.0,82,0.00,,,0.00,Wunderground v.1.15,2013-02-13 09:30:00,
2013-02-13 04:40:00,29.2,24.7,29.88,West,273,0.0,0.0,83,0.00,,,0.00,Wunderground v.1.15,2013-02-13 09:40:00,
2013-02-13 04:45:00,29.2,24.7,29.88,West,272,0.0,0.0,83,0.00,,,0.00,Wunderground v.1.15,2013-02-13 09:45:00,
2013-02-13 04:55:00,29.0,24.5,29.88,West,273,0.0,0.0,83,0.00,,,0.00,Wunderground v.1.15,2013-02-13 09:55:00,
2013-02-13 05:05:00,29.0,24.8,29.88,West,272,0.0,0.0,84,0.00,,,0.00,Wunderground v.1.15,2013-02-13 10:05:00,
2013-02-13 05:10:00,28.9,24.7,29.88,West,272,0.0,0.0,84,0.00,,,0.00,Wunderground v.1.15,2013-02-13 10:10:00,
2013-02-13 05:20:00,28.9,24.7,29.88,West,272,0.0,0.0,84,0.00,,,0.00,Wunderground v.1.15,2013-02-13 10:20:00,
2013-02-13 05:30:00,29.0,24.8,29.88,West,273,0.0,0.0,84,0.00,,,0.00,Wunderground v.1.15,2013-02-13 10:30:00,
2013-02-13 05:40:00,29.0,24.8,29.88,WNW,286,0.0,0.0,84,0.00,,,0.00,Wunderground v.1.15,2013-02-13 10:40:00,
2013-02-13 05:45:00,29.0,25.1,29.88,West,276,0.0,0.0,85,0.00,,,0.00,Wunderground v.1.15,2013-02-13 10:45:00,
2013-02-13 05:55:00,28.9,25.0,29.88,West,276,0.0,0.0,85,0.00,,,0.00,Wunderground v.1.15,2013-02-13 10:55:00,
2013-02-13 06:00:00,28.8,24.9,29.88,West,275,0.0,0.0,85,0.00,,,0.00,Wunderground v.1.15,2013-02-13 11:00:00,
2013-02-13 06:10:00,28.7,25.0,29.87,SSW,200,0.0,1.0,86,0.00,,,0.00,Wunderground v.1.15,2013-02-13 11:10:00,
2013-02-13 06:20:00,28.6,24.9,29.87,SSE,162,1.0,1.0,86,0.00,,,0.00,Wunderground v.1.15,2013-02-13 11:20:00,
2013-02-13 06:30:00,28.8,25.1,29.88,SSW,205,0.0,0.0,86,0.00,,,0.00,Wunderground v.1.15,2013-02-13 11:30:00,
2013-02-13 06:40:00,28.8,25.1,29.87,SSW,200,0.0,0.0,86,0.00,,,0.00,Wunderground v.1.15,2013-02-13 11:40:00,
2013-02-13 06:45:00,28.8,25.1,29.88,SSW,199,0.0,0.0,86,0.00,,,0.00,Wunderground v.1.15,2013-02-13 11:45:00,
2013-02-13 06:55:00,28.8,24.9,29.88,SSW,201,0.0,1.0,85,0.00,,,0.00,Wunderground v.1.15,2013-02-13 11:55:00,
2013-02-13 07:05:00,28.9,25.0,29.87,SSW,210,1.0,1.0,85,0.00,,,0.00,Wunderground v.1.15,2013-02-13 12:05:00,
2013-02-13 07:10:00,28.9,25.0,29.87,SW,236,0.0,0.0,85,0.00,,,0.00,Wunderground v.1.15,2013-02-13 12:10:00,
2013-02-13 07:20:00,28.9,25.0,29.87,SSW,194,0.0,2.0,85,0.00,,,0.00,Wunderground v.1.15,2013-02-13 12:20:00,
2013-02-13 07:30:00,29.0,24.8,29.87,SW,221,1.0,1.0,84,0.00,,,0.00,Wunderground v.1.15,2013-02-13 12:30:00,
2013-02-13 07:40:00,29.1,24.9,29.87,SW,221,0.0,0.0,84,0.00,,,0.00,Wunderground v.1.15,2013-02-13 12:40:00,
2013-02-13 07:45:00,29.2,25.0,29.87,SW,221,0.0,0.0,84,0.00,,,0.00,Wunderground v.1.15,2013-02-13 12:45:00,
2013-02-13 07:55:00,29.3,25.4,29.87,SW,219,0.0,0.0,85,0.00,,,0.00,Wunderground v.1.15,2013-02-13 12:55:00,
2013-02-13 08:00:00,29.4,25.4,29.87,WNW,285,0.0,1.0,85,0.00,,,0.00,Wunderground v.1.15,2013-02-13 13:00:00,
2013-02-13 08:05:00,29.5,25.3,29.87,WNW,285,0.0,1.0,84,0.00,,,0.00,Wunderground v.1.15,2013-02-13 13:05:00,
2013-02-13 08:15:00,30.0,25.5,29.86,SSW,211,0.0,0.0,83,0.00,,,0.00,Wunderground v.1.15,2013-02-13 13:15:00,
2013-02-13 08:25:00,30.3,25.8,29.86,WSW,244,0.0,1.0,83,0.00,,,0.00,Wunderground v.1.15,2013-02-13 13:25:00,
2013-02-13 08:35:00,30.7,25.9,29.86,SSW,204,0.0,0.0,82,0.00,,,0.00,Wunderground v.1.15,2013-02-13 13:35:00,
2013-02-13 08:40:00,30.9,25.8,29.86,SSW,205,1.0,1.0,81,0.00,,,0.00,Wunderground v.1.15,2013-02-13 13:40:00,
2013-02-13 08:50:00,31.2,25.4,29.85,West,265,1.0,1.0,79,0.00,,,0.00,Wunderground v.1.15,2013-02-13 13:50:00,
2013-02-13 08:55:00,31.4,25.3,29.85,SW,225,1.0,1.0,78,0.00,,,0.00,Wunderground v.1.15,2013-02-13 13:55:00,
2013-02-13 09:00:00,31.7,25.6,29.85,SW,221,0.0,1.0,78,0.00,,,0.00,Wunderground v.1.15,2013-02-13 14:00:00,
2013-02-13 09:10:00,31.8,25.1,29.85,SSW,212,1.0,1.0,76,0.00,,,0.00,Wunderground v.1.15,2013-02-13 14:10:00,
2013-02-13 09:15:00,32.1,25.4,29.85,SW,230,1.0,1.0,76,0.00,,,0.00,Wunderground v.1.15,2013-02-13 14:15:00,
2013-02-13 09:25:00,32.5,25.8,29.85,SW,219,1.0,1.0,76,0.00,,,0.00,Wunderground v.1.15,2013-02-13 14:25:00,
2013-02-13 09:30:00,32.6,25.9,29.85,SSE,156,1.0,1.0,76,0.00,,,0.00,Wunderground v.1.15,2013-02-13 14:30:00,
2013-02-13 09:40:00,32.8,25.4,29.85,SW,221,2.0,3.0,74,0.00,,,0.00,Wunderground v.1.15,2013-02-13 14:40:00,
2013-02-13 09:50:00,32.9,24.9,29.85,WSW,246,2.0,4.0,72,0.00,,,0.00,Wunderground v.1.15,2013-02-13 14:50:00,
2013-02-13 09:55:00,33.2,24.8,29.85,NW,304,2.0,4.0,71,0.00,,,0.00,Wunderground v.1.15,2013-02-13 14:55:00,
2013-02-13 10:00:00,33.3,24.6,29.85,SW,225,1.0,1.0,70,0.00,,,0.00,Wunderground v.1.15,2013-02-13 15:00:00,
2013-02-13 10:10:00,33.3,23.9,29.84,WNW,286,2.0,2.0,68,0.00,,,0.00,Wunderground v.1.15,2013-02-13 15:10:00,
2013-02-13 10:20:00,33.7,24.3,29.84,West,271,1.0,1.0,68,0.00,,,0.00,Wunderground v.1.15,2013-02-13 15:20:00,
2013-02-13 10:30:00,34.4,23.8,29.84,WNW,283,1.0,1.0,65,0.00,,,0.00,Wunderground v.1.15,2013-02-13 15:30:00,
2013-02-13 10:35:00,34.8,24.2,29.84,SW,219,0.0,1.0,65,0.00,,,0.00,Wunderground v.1.15,2013-02-13 15:35:00,
2013-02-13 10:45:00,34.6,23.3,29.83,WSW,240,2.0,2.0,63,0.00,,,0.00,Wunderground v.1.15,2013-02-13 15:45:00,
2013-02-13 10:55:00,35.4,24.0,29.83,WNW,299,0.0,1.0,63,0.00,,,0.00,Wunderground v.1.15,2013-02-13 15:55:00,
2013-02-13 11:05:00,35.1,23.4,29.83,SW,215,1.0,1.0,62,0.00,,,0.00,Wunderground v.1.15,2013-02-13 16:05:00,
2013-02-13 11:10:00,35.3,23.2,29.83,SW,229,2.0,2.0,61,0.00,,,0.00,Wunderground v.1.15,2013-02-13 16:10:00,
2013-02-13 11:20:00,35.5,23.0,29.83,WSW,245,2.0,2.0,60,0.00,,,0.00,Wunderground v.1.15,2013-02-13 16:20:00,
2013-02-13 11:30:00,35.7,23.2,29.82,WSW,242,1.0,1.0,60,0.00,,,0.00,Wunderground v.1.15,2013-02-13 16:30:00,
2013-02-13 11:40:00,36.4,23.0,29.82,SSW,196,1.0,1.0,58,0.00,,,0.00,Wunderground v.1.15,2013-02-13 16:40:00,
2013-02-13 11:45:00,36.7,23.3,29.81,SE,136,2.0,2.0,58,0.00,,,0.00,Wunderground v.1.15,2013-02-13 16:45:00,
2013-02-13 11:55:00,37.1,22.8,29.80,ENE,76,1.0,1.0,56,0.00,,,0.00,Wunderground v.1.15,2013-02-13 16:55:00,
2013-02-13 12:05:00,36.3,22.9,29.80,North,4,1.0,2.0,58,0.00,,,0.00,Wunderground v.1.15,2013-02-13 17:05:00,
2013-02-13 12:10:00,36.1,23.1,29.79,West,259,2.0,2.0,59,0.00,,,0.00,Wunderground v.1.15,2013-02-13 17:10:00,
2013-02-13 12:20:00,36.9,23.1,29.79,SSW,203,1.0,3.0,57,0.00,,,0.00,Wunderground v.1.15,2013-02-13 17:20:00,
2013-02-13 12:25:00,37.3,23.4,29.79,WSW,245,1.0,3.0,57,0.00,,,0.00,Wunderground v.1.15,2013-02-13 17:25:00,
2013-02-13 12:30:00,37.9,23.2,29.79,WSW,254,1.0,2.0,55,0.00,,,0.00,Wunderground v.1.15,2013-02-13 17:30:00,
2013-02-13 12:40:00,37.3,22.6,29.79,SSE,153,2.0,2.0,55,0.00,,,0.00,Wunderground v.1.15,2013-02-13 17:40:00,
2013-02-13 12:50:00,37.6,22.9,29.79,West,278,3.0,3.0,55,0.00,,,0.00,Wunderground v.1.15,2013-02-13 17:50:00,
2013-02-13 13:00:00,36.9,22.2,29.78,WNW,293,2.0,2.0,55,0.00,,,0.00,Wunderground v.1.15,2013-02-13 18:00:00,
2013-02-13 13:05:00,36.7,22.5,29.78,SSW,206,2.0,2.0,56,0.00,,,0.00,Wunderground v.1.15,2013-02-13 18:05:00,
2013-02-13 13:15:00,36.6,22.4,29.79,SE,128,2.0,4.0,56,0.00,,,0.00,Wunderground v.1.15,2013-02-13 18:15:00,
2013-02-13 13:25:00,38.2,23.9,29.78,South,173,3.0,4.0,56,0.00,,,0.00,Wunderground v.1.15,2013-02-13 18:25:00,
2013-02-13 13:30:00,38.7,23.0,29.78,SE,138,1.0,2.0,53,0.00,,,0.00,Wunderground v.1.15,2013-02-13 18:30:00,
2013-02-13 13:40:00,37.6,23.3,29.78,ESE,123,3.0,4.0,56,0.00,,,0.00,Wunderground v.1.15,2013-02-13 18:40:00,
2013-02-13 13:50:00,37.6,23.3,29.77,SE,141,3.0,5.0,56,0.00,,,0.00,Wunderground v.1.15,2013-02-13 18:50:00,
2013-02-13 14:00:00,37.8,23.1,29.76,East,101,2.0,2.0,55,0.00,,,0.00,Wunderground v.1.15,2013-02-13 19:00:00,
2013-02-13 14:10:00,36.3,22.5,29.76,ESE,103,4.0,4.0,57,0.00,,,0.00,Wunderground v.1.15,2013-02-13 19:10:00,
2013-02-13 14:15:00,35.7,22.4,29.76,ESE,104,4.0,4.0,58,0.00,,,0.00,Wunderground v.1.15,2013-02-13 19:15:00,
2013-02-13 14:25:00,36.1,22.7,29.75,ENE,70,2.0,3.0,58,0.00,,,0.00,Wunderground v.1.15,2013-02-13 19:25:00,
2013-02-13 14:30:00,36.2,23.6,29.75,ENE,78,2.0,2.0,60,0.00,,,0.00,Wunderground v.1.15,2013-02-13 19:30:00,
2013-02-13 14:35:00,36.3,22.9,29.75,East,100,3.0,3.0,58,0.00,,,0.00,Wunderground v.1.15,2013-02-13 19:35:00,
2013-02-13 14:45:00,36.6,24.0,29.75,SE,138,2.0,3.0,60,0.00,,,0.00,Wunderground v.1.15,2013-02-13 19:45:00,
2013-02-13 14:55:00,36.7,23.7,29.75,ESE,104,3.0,4.0,59,0.00,,,0.00,Wunderground v.1.15,2013-02-13 19:55:00,
2013-02-13 15:00:00,36.6,24.4,29.75,ESE,117,4.0,5.0,61,0.00,,,0.00,Wunderground v.1.15,2013-02-13 20:00:00,
2013-02-13 15:10:00,36.6,23.6,29.74,East,96,3.0,5.0,59,0.00,,,0.00,Wunderground v.1.15,2013-02-13 20:10:00,
2013-02-13 15:20:00,36.3,23.3,29.74,East,96,4.0,4.0,59,0.00,,,0.00,Wunderground v.1.15,2013-02-13 20:20:00,
2013-02-13 15:30:00,36.2,24.4,29.74,East,86,3.0,4.0,62,0.00,,,0.00,Wunderground v.1.15,2013-02-13 20:30:00,
2013-02-13 15:40:00,36.0,23.4,29.75,ESE,112,5.0,7.0,60,0.00,,,0.00,Wunderground v.1.15,2013-02-13 20:40:00,
2013-02-13 15:45:00,36.2,22.8,29.75,SE,127,5.0,7.0,58,0.00,,,0.00,Wunderground v.1.15,2013-02-13 20:45:00,
2013-02-13 15:55:00,36.2,23.2,29.74,East,91,3.0,4.0,59,0.00,,,0.00,Wunderground v.1.15,2013-02-13 20:55:00,
2013-02-13 16:00:00,36.3,22.9,29.74,East,91,3.0,3.0,58,0.00,,,0.00,Wunderground v.1.15,2013-02-13 21:00:00,
2013-02-13 16:10:00,35.9,23.4,29.73,ENE,77,2.0,2.0,60,0.00,,,0.00,Wunderground v.1.15,2013-02-13 21:10:00,
2013-02-13 16:20:00,35.7,23.9,29.73,ENE,77,1.0,1.0,62,0.00,,,0.00,Wunderground v.1.15,2013-02-13 21:20:00,
2013-02-13 16:30:00,35.3,23.2,29.72,ENE,77,1.0,1.0,61,0.00,,,0.00,Wunderground v.1.15,2013-02-13 21:30:00,
2013-02-13 16:35:00,35.3,23.6,29.72,ENE,77,1.0,1.0,62,0.00,,,0.00,Wunderground v.1.15,2013-02-13 21:35:00,
2013-02-13 16:45:00,34.9,23.9,29.72,ENE,77,0.0,1.0,64,0.00,,,0.00,Wunderground v.1.15,2013-02-13 21:45:00,
2013-02-13 16:55:00,34.0,23.5,29.72,ENE,77,1.0,2.0,65,0.00,,,0.00,Wunderground v.1.15,2013-02-13 21:55:00,
2013-02-13 17:00:00,33.5,23.4,29.73,ENE,76,1.0,1.0,66,0.00,,,0.00,Wunderground v.1.15,2013-02-13 22:00:00,
2013-02-13 17:10:00,33.6,22.7,29.73,ENE,77,2.0,2.0,64,0.00,,,0.00,Wunderground v.1.15,2013-02-13 22:10:00,
2013-02-13 17:20:00,33.7,22.8,29.73,ENE,75,2.0,2.0,64,0.00,,,0.00,Wunderground v.1.15,2013-02-13 22:20:00,
2013-02-13 17:30:00,31.7,23.0,29.73,ENE,60,2.0,2.0,70,0.00,,,0.00,Wunderground v.1.15,2013-02-13 22:30:00,
2013-02-13 17:40:00,30.3,22.4,29.73,ENE,60,0.0,0.0,72,0.00,,,0.00,Wunderground v.1.15,2013-02-13 22:40:00,
2013-02-13 17:50:00,29.9,22.3,29.73,ENE,60,0.0,0.0,73,0.00,,,0.00,Wunderground v.1.15,2013-02-13 22:50:00,
2013-02-13 18:00:00,30.0,22.1,29.73,ENE,60,0.0,0.0,72,0.00,,,0.00,Wunderground v.1.15,2013-02-13 23:00:00,
2013-02-13 18:05:00,29.4,21.8,29.73,ENE,60,0.0,0.0,73,0.00,,,0.00,Wunderground v.1.15,2013-02-13 23:05:00,
2013-02-13 18:15:00,29.1,21.8,29.73,ENE,60,0.0,0.0,74,0.00,,,0.00,Wunderground v.1.15,2013-02-13 23:15:00,
2013-02-13 18:25:00,28.9,21.7,29.73,North,6,2.0,3.0,74,0.00,,,0.00,Wunderground v.1.15,2013-02-13 23:25:00,
2013-02-13 18:30:00,28.5,21.6,29.73,North,5,3.0,3.0,75,0.00,,,0.00,Wunderground v.1.15,2013-02-13 23:30:00,
2013-02-13 18:40:00,28.7,21.5,29.73,North,4,1.0,1.0,74,0.00,,,0.00,Wunderground v.1.15,2013-02-13 23:40:00,
2013-02-13 18:50:00,28.2,21.3,29.74,North,5,0.0,0.0,75,0.00,,,0.00,Wunderground v.1.15,2013-02-13 23:50:00,
2013-02-13 19:00:00,27.6,21.0,29.74,North,5,0.0,0.0,76,0.00,,,0.00,Wunderground v.1.15,2013-02-14 00:00:00,
2013-02-13 19:10:00,27.8,20.9,29.75,North,4,0.0,1.0,75,0.00,,,0.00,Wunderground v.1.15,2013-02-14 00:10:00,
2013-02-13 19:20:00,28.4,21.2,29.75,North,4,0.0,0.0,74,0.00,,,0.00,Wunderground v.1.15,2013-02-14 00:20:00,
2013-02-13 19:30:00,27.7,20.8,29.75,NNW,329,0.0,1.0,75,0.00,,,0.00,Wunderground v.1.15,2013-02-14 00:30:00,
2013-02-13 19:35:00,27.7,21.1,29.75,NNW,328,1.0,1.0,76,0.00,,,0.00,Wunderground v.1.15,2013-02-14 00:35:00,
2013-02-13 19:45:00,26.8,20.6,29.75,NNW,329,0.0,1.0,77,0.00,,,0.00,Wunderground v.1.15,2013-02-14 00:45:00,
2013-02-13 19:55:00,26.4,20.5,29.76,NNW,329,0.0,0.0,78,0.00,,,0.00,Wunderground v.1.15,2013-02-14 00:55:00,
2013-02-13 20:05:00,25.4,20.1,29.76,NNW,329,0.0,0.0,80,0.00,,,0.00,Wunderground v.1.15,2013-02-14 01:05:00,
2013-02-13 20:10:00,25.0,20.0,29.76,NNW,329,0.0,0.0,81,0.00,,,0.00,Wunderground v.1.15,2013-02-14 01:10:00,
2013-02-13 20:20:00,24.7,20.0,29.76,NNW,329,0.0,0.0,82,0.00,,,0.00,Wunderground v.1.15,2013-02-14 01:20:00,
2013-02-13 20:30:00,24.8,20.1,29.76,NNW,329,0.0,0.0,82,0.00,,,0.00,Wunderground v.1.15,2013-02-14 01:30:00,
2013-02-13 20:40:00,24.2,19.8,29.76,NNW,329,0.0,0.0,83,0.00,,,0.00,Wunderground v.1.15,2013-02-14 01:40:00,
2013-02-13 20:50:00,23.4,19.0,29.76,NNW,329,0.0,0.0,83,0.00,,,0.00,Wunderground v.1.15,2013-02-14 01:50:00,
2013-02-13 21:00:00,23.1,19.5,29.77,NNW,328,0.0,0.0,86,0.00,,,0.00,Wunderground v.1.15,2013-02-14 02:00:00,
2013-02-13 21:05:00,23.8,19.9,29.77,NNW,328,0.0,0.0,85,0.00,,,0.00,Wunderground v.1.15,2013-02-14 02:05:00,
2013-02-13 21:10:00,24.2,20.1,29.77,NNW,328,0.0,0.0,84,0.00,,,0.00,Wunderground v.1.15,2013-02-14 02:10:00,
2013-02-13 21:20:00,24.1,19.7,29.77,NNW,328,0.0,0.0,83,0.00,,,0.00,Wunderground v.1.15,2013-02-14 02:20:00,
2013-02-13 21:25:00,23.7,19.3,29.77,NNW,328,0.0,0.0,83,0.00,,,0.00,Wunderground v.1.15,2013-02-14 02:25:00,
2013-02-13 21:35:00,23.0,19.2,29.77,NNW,328,0.0,0.0,85,0.00,,,0.00,Wunderground v.1.15,2013-02-14 02:35:00,
2013-02-13 21:45:00,22.5,18.7,29.78,NNW,328,0.0,0.0,85,0.00,,,0.00,Wunderground v.1.15,2013-02-14 02:45:00,
2013-02-13 21:50:00,22.1,18.6,29.78,NNW,328,0.0,0.0,86,0.00,,,0.00,Wunderground v.1.15,2013-02-14 02:50:00,
2013-02-13 22:00:00,21.7,18.4,29.78,NNW,328,0.0,0.0,87,0.00,,,0.00,Wunderground v.1.15,2013-02-14 03:00:00,
2013-02-13 22:10:00,21.2,18.2,29.78,NNW,328,0.0,0.0,88,0.00,,,0.00,Wunderground v.1.15,2013-02-14 03:10:00,
2013-02-13 22:15:00,20.9,17.9,29.78,NNW,329,0.0,0.0,88,0.00,,,0.00,Wunderground v.1.15,2013-02-14 03:15:00,
2013-02-13 22:25:00,21.1,18.6,29.78,NNW,329,0.0,0.0,90,0.00,,,0.00,Wunderground v.1.15,2013-02-14 03:25:00,
2013-02-13 22:35:00,21.5,18.5,29.78,NNW,328,0.0,1.0,88,0.00,,,0.00,Wunderground v.1.15,2013-02-14 03:35:00,
2013-02-13 22:40:00,21.5,18.5,29.78,NW,308,1.0,1.0,88,0.00,,,0.00,Wunderground v.1.15,2013-02-14 03:40:00,
2013-02-13 22:50:00,21.6,18.6,29.78,NW,308,1.0,1.0,88,0.00,,,0.00,Wunderground v.1.15,2013-02-14 03:50:00,
2013-02-13 23:00:00,22.4,19.6,29.78,NW,308,1.0,1.0,89,0.00,,,0.00,Wunderground v.1.15,2013-02-14 04:00:00,
2013-02-13 23:10:00,22.8,19.8,29.79,NW,308,1.0,1.0,88,0.00,,,0.00,Wunderground v.1.15,2013-02-14 04:10:00,
2013-02-13 23:15:00,22.5,19.5,29.79,NW,308,1.0,1.0,88,0.00,,,0.00,Wunderground v.1.15,2013-02-14 04:15:00,
2013-02-13 23:25:00,22.3,19.3,29.79,NW,308,0.0,0.0,88,0.00,,,0.00,Wunderground v.1.15,2013-02-14 04:25:00,
2013-02-13 23:35:00,22.2,19.5,29.79,NW,308,0.0,0.0,89,0.00,,,0.00,Wunderground v.1.15,2013-02-14 04:35:00,
2013-02-13 23:40:00,21.9,19.2,29.79,NW,308,0.0,0.0,89,0.00,,,0.00,Wunderground v.1.15,2013-02-14 04:40:00,
2013-02-13 23:50:00,21.9,19.4,29.80,NW,308,0.0,0.0,90,0.00,,,0.00,Wunderground v.1.15,2013-02-14 04:50:00,
2013-02-13 23:55:00,22.0,19.8,29.80,WSW,255,0.0,0.0,91,0.00,,,0.00,Wunderground v.1.15,2013-02-14 04:55:00,